Ketchikan, AK

2:18 PM AKDT on July 22, 2018 (GMT -0800)
Ketchikan International

Weather History for PAKT - July, 2018

Change the Weather History Date:

Saturday, July 21, 2018

  Actual Average Record
Temperature  
Mean Temperature 61 °F -  
Max Temperature 72 °F 66 °F 81 °F (1972)
Min Temperature 51 °F 51 °F 41 °F (1955)
Degree Days  
Heating Degree Days 4    
Growing Degree Days 11 (Base 50)    
Moisture  
Dew Point 54 °F    
Average Humidity 79    
Maximum Humidity 97    
Minimum Humidity 53    
Precipitation  
Precipitation 0.00 in - - ()
Sea Level Pressure  
Sea Level Pressure 30.24 in    
Wind  
Wind Speed 4 mph (SE)    
Max Wind Speed 12 mph    
Max Gust Speed -    
Visibility 10 miles    
Events      
Averages and records for this station are not official NWS values.
T = Trace of Precipitation, MM = Missing Value Source: NWS Daily Summary

Daily Weather History Graph

Daily Weather History Graph

Search for Another Location

Airport or City:

Astronomy

Jul. 21, 2018 Rise Set
Actual Time 4:35 AM AKDT 9:10 PM AKDT
Civil Twilight 3:43 AM AKDT 10:01 PM AKDT
Nautical Twilight 2:19 AM AKDT 11:23 PM AKDT
Astronomical Twilight Sun does not set Sun does not set
Moon 3:48 PM AKDT (7/21) 12:42 AM AKDT (7/21)
Length of Visible Light 18h 17m
Length of Day
16h 34m
Waxing Gibbous, 70% of the Moon is Illuminated
Jul 21
Waxing Gibbous
Jul 27
Full
Aug 4
Last Quarter
Aug 11
New
Aug 17
First Quarter

Hourly Weather History & Observations

Time (AKDT) Temp. Dew Point Humidity Pressure Visibility Wind Dir Wind Speed Gust Speed Precip Events Conditions
12:53 AM 55.9 °F 54.0 °F 93% 30.23 in 10.0 mi SSW 3.5 mph - N/A   Clear
1:53 AM 55.0 °F 52.0 °F 89% 30.24 in 10.0 mi Calm Calm - N/A   Clear
2:53 AM 51.1 °F 48.9 °F 92% 30.24 in 9.0 mi Calm Calm - N/A   Clear
3:53 AM 54.0 °F 52.0 °F 93% 30.24 in 10.0 mi SSE 4.6 mph - N/A   Clear
4:25 AM 52.0 °F 51.1 °F 97% 30.24 in 8.0 mi Calm Calm - N/A   Partly Cloudy
4:40 AM 54.0 °F 51.1 °F 90% 30.24 in 7.0 mi South 3.5 mph - N/A   Mostly Cloudy
4:53 AM 55.9 °F 53.1 °F 90% 30.25 in 7.0 mi SSW 3.5 mph - N/A   Overcast
5:53 AM 55.9 °F 54.0 °F 93% 30.25 in 7.0 mi Calm Calm - N/A   Overcast
6:06 AM 55.9 °F 54.0 °F 93% 30.25 in 10.0 mi Calm Calm - N/A   Overcast
6:53 AM 57.9 °F 54.0 °F 87% 30.25 in 10.0 mi East 3.5 mph - N/A   Mostly Cloudy
7:53 AM 60.1 °F 54.0 °F 80% 30.25 in 10.0 mi East 3.5 mph - N/A   Mostly Cloudy
8:20 AM 60.8 °F 53.6 °F 77% 30.25 in 10.0 mi ESE 4.6 mph - N/A   Scattered Clouds
8:53 AM 60.8 °F 53.6 °F 77% 30.25 in 10.0 mi ESE 3.5 mph - N/A   Scattered Clouds
9:53 AM 64.4 °F 53.6 °F 68% 30.25 in 10.0 mi Variable 3.5 mph - N/A   Partly Cloudy
10:53 AM 64.9 °F 55.0 °F 70% 30.25 in 10.0 mi Variable 4.6 mph - N/A   Clear
11:53 AM 68.0 °F 53.1 °F 59% 30.24 in 10.0 mi NW 6.9 mph - N/A   Clear
12:53 PM 69.8 °F 53.6 °F 56% 30.23 in 10.0 mi NW 9.2 mph - N/A   Clear
1:53 PM 71.6 °F 53.6 °F 53% 30.23 in 10.0 mi Variable 6.9 mph - N/A   Clear
2:53 PM 69.8 °F 55.4 °F 60% 30.23 in 10.0 mi ESE 11.5 mph - N/A   Clear
3:53 PM 69.8 °F 55.4 °F 60% 30.22 in 10.0 mi ESE 10.4 mph - N/A   Clear
4:53 PM 69.8 °F 55.4 °F 60% 30.22 in 10.0 mi ESE 11.5 mph - N/A   Clear
5:53 PM 68.0 °F 55.4 °F 64% 30.22 in 10.0 mi ESE 11.5 mph - N/A   Clear
6:53 PM 69.1 °F 55.0 °F 61% 30.22 in 10.0 mi ESE 10.4 mph - N/A   Clear
7:53 PM 64.4 °F 57.2 °F 77% 30.22 in 10.0 mi SE 9.2 mph - N/A   Clear
8:53 PM 60.8 °F 55.4 °F 82% 30.23 in 10.0 mi SSE 6.9 mph - N/A   Clear
9:53 PM 57.0 °F 55.0 °F 93% 30.25 in 9.0 mi SSE 5.8 mph - N/A   Clear
10:03 PM 57.0 °F 55.0 °F 93% 30.25 in 9.0 mi SSE 5.8 mph - N/A   Partly Cloudy
10:53 PM 57.0 °F 54.0 °F 89% 30.27 in 10.0 mi SSE 6.9 mph - N/A   Partly Cloudy
11:14 PM 57.0 °F 54.0 °F 89% 30.26 in 9.0 mi SSE 6.9 mph - N/A   Mostly Cloudy
11:53 PM 57.0 °F 54.0 °F 89% 30.27 in 9.0 mi SSE 6.9 mph - N/A   Overcast